[[{"header":{"parameterUnit":"m.s-1","parameterCategory":1,"la1":30.2991,"la2":30.254,"lo1":-89.0895,"lo2":-89.0444,"dy":0.0017,"dx":0.0017,"nx":28,"ny":28,"refTime":"2024-07-20T03:00:00:Z","depth":0,"parameterNumber":2,"parameterNumberName":"U-component_of_WINDS"},"data":[0,0,0,0,0,0,0,0,0,0,0,0,0,0,0,0,0,0,0,0,0,0,0,0,0,0,0,0,0,0,0,0,0,0,0,0,0,0,0,0,0,0,0,0,0,0,0,0,0,0,0,0,0,0,0,0,0,0,-0.5017,-0.5017,0,-0.5059,-0.506,-0.506,-0.5063,-0.5062,-0.5062,-0.5061,-0.5107,-0.5108,-0.511,0,0,0,0,0,0,0,0,0,0,0,0,0,-0.4942,-0.4943,-0.5017,-0.5017,-0.5018,-0.5059,-0.506,-0.506,-0.5063,-0.5062,-0.5062,-0.5061,-0.5106,-0.5108,-0.511,0,0,0,0,0,0,0,0,0,0,0,0,0,-0.4978,-0.4943,-0.5017,-0.5024,-0.5025,-0.5059,-0.506,-0.506,-0.5063,-0.5062,-0.5061,-0.5061,-0.5106,-0.5108,-0.511,-0.514,0,0,-0.5118,-0.5119,0,0,0,0,0,0,0,0,-0.4976,-0.4981,-0.5023,-0.5024,-0.5025,-0.5055,-0.505,-0.5087,-0.5063,-0.5049,-0.5061,-0.506,-0.509,-0.5094,-0.5103,-0.5142,-0.5144,-0.5118,-0.512,-0.5121,-0.5122,0,0,0,0,0,0,0,-0.4973,-0.4979,-0.5034,-0.5023,-0.5025,-0.5026,-0.5031,-0.5057,-0.5073,-0.505,-0.505,-0.5055,-0.5091,-0.5101,-0.5105,-0.5145,-0.5118,-0.512,-0.5122,-0.5123,-0.5212,-0.5213,0,0,0,0,0,0,-0.4969,-0.4977,-0.5032,-0.5035,-0.4998,-0.5028,-0.5033,-0.5046,-0.5073,-0.5076,-0.5056,-0.5055,-0.5097,-0.5102,-0.5106,-0.5144,-0.5121,-0.5123,-0.5125,-0.5211,-0.5212,-0.5213,0,0,0,0,0,0,-0.4968,-0.4974,-0.5031,-0.5006,-0.5013,-0.503,-0.5045,-0.5047,-0.5058,-0.5077,-0.508,-0.5063,-0.5097,-0.5103,-0.5132,-0.5146,-0.5124,-0.5127,-0.521,-0.5212,-0.5213,-0.5219,0,0,0,0,0,0,-0.4965,-0.4973,-0.4984,-0.5006,-0.5015,-0.5055,-0.5046,-0.5049,-0.5062,-0.5061,-0.5085,-0.5088,-0.5097,-0.5128,-0.5134,-0.5149,-0.5128,-0.5209,-0.5211,-0.5212,-0.5218,-0.522,-0.5223,0,0,0,0,0,-0.4963,-0.4984,-0.4985,-0.4991,-0.5028,-0.5055,-0.506,-0.5069,-0.5063,-0.5074,-0.5087,-0.5087,-0.5143,-0.5131,-0.5138,-0.5153,-0.5208,-0.521,-0.5212,-0.5217,-0.522,-0.5223,0,0,0,0,0,0,-0.4964,-0.4987,-0.4988,-0.5017,-0.5034,-0.5056,-0.5071,-0.5072,-0.5092,-0.5091,-0.5102,-0.5107,-0.5136,-0.5148,-0.5134,-0.5184,-0.5175,-0.5179,-0.5176,-0.5179,-0.5182,-0.5179,-0.5131,0,0,0,0,0,-0.4968,-0.4987,-0.5007,-0.5031,-0.5039,-0.5053,-0.5066,-0.5071,-0.5089,-0.5097,-0.5112,-0.513,-0.5152,-0.5166,-0.5187,-0.5219,-0.5225,-0.5233,-0.5236,-0.5238,-0.5241,-0.526,-0.5264,-0.522,-0.522,-0.522,0,0,-0.4976,-0.4991,-0.5002,-0.5031,-0.5045,-0.5066,-0.5059,-0.5082,-0.5098,-0.51,-0.5129,-0.5141,-0.5162,-0.5193,-0.5208,-0.5204,-0.5254,-0.524,-0.5242,-0.5244,-0.5263,-0.5267,-0.527,-0.5221,-0.5221,-0.5221,0,0,-0.5001,-0.5014,-0.5036,-0.505,-0.5071,-0.508,-0.5085,-0.5107,-0.5115,-0.5143,-0.5146,-0.5166,-0.5203,-0.5218,-0.5231,-0.5263,-0.5265,-0.527,-0.5283,-0.5302,-0.5305,-0.5309,-0.5321,-0.5326,-0.5273,-0.5273,-0.5273,0,-0.5009,-0.5039,-0.5047,-0.5069,-0.5083,-0.5086,-0.5109,-0.5122,-0.5149,-0.5159,-0.5154,-0.5201,-0.5216,-0.5251,-0.5259,-0.5269,-0.5276,-0.5268,-0.5304,-0.5307,-0.5311,-0.5323,-0.5327,-0.5273,-0.5273,-0.5273,-0.5273,0,-0.5048,-0.5069,-0.5085,-0.511,-0.5125,-0.5148,-0.516,-0.5175,-0.5179,-0.5189,-0.5219,-0.5237,-0.5262,-0.5271,-0.5276,-0.5308,-0.5305,-0.5302,-0.5293,-0.5315,-0.5327,-0.5332,-0.5274,-0.5274,-0.5274,-0.5274,0,0,-0.5075,-0.5105,-0.5111,-0.5123,-0.5147,-0.5164,-0.5187,-0.5211,-0.5224,-0.5243,-0.5263,-0.5295,-0.5293,-0.5307,-0.5314,-0.533,-0.5356,-0.5325,-0.5326,-0.5331,-0.5394,-0.5397,-0.5402,-0.5357,-0.5358,-0.5358,-0.5392,0,-0.5104,-0.5145,-0.5153,-0.5189,-0.5209,-0.5213,-0.5233,-0.5251,-0.5261,-0.5281,-0.5293,-0.5316,-0.531,-0.5319,-0.5335,-0.5349,-0.5369,-0.5347,-0.5377,-0.5378,-0.5373,-0.5408,-0.5411,-0.5442,-0.5397,-0.5398,-0.5398,0,-0.5143,-0.5162,-0.52,-0.5222,-0.5231,-0.5249,-0.5272,-0.5291,-0.5311,-0.5318,-0.5334,-0.5339,-0.5365,-0.5354,-0.539,-0.5375,-0.5388,-0.5397,-0.5399,-0.5403,-0.539,-0.5414,-0.5452,-0.5457,-0.5405,-0.5405,-0.5404,0,-0.5161,-0.5196,-0.5224,-0.5234,-0.5259,-0.5272,-0.5284,-0.5303,-0.5318,-0.5338,-0.5348,-0.5372,-0.5385,-0.5404,-0.5415,-0.5406,-0.5451,-0.5441,-0.5459,-0.5459,-0.5469,-0.5468,-0.5511,-0.5475,-0.5475,-0.5475,-0.5475,0,-0.5193,-0.5216,-0.5232,-0.5249,-0.5275,-0.5285,-0.5312,-0.5323,-0.5341,-0.5361,-0.5365,-0.5384,-0.5398,-0.5419,-0.5429,-0.5458,-0.5464,-0.5471,-0.5473,-0.5471,-0.5471,-0.5481,-0.5479,-0.5477,-0.5476,-0.5476,-0.5476,0,-0.5217,-0.5229,-0.5259,-0.5281,-0.5287,-0.5306,-0.5325,-0.5342,-0.5353,-0.5379,-0.5385,-0.5402,-0.5428,-0.5441,-0.5473,-0.5479,-0.5513,-0.5513,-0.5506,-0.5507,-0.5524,-0.5523,-0.5576,-0.5584,-0.5542,-0.5542,-0.5543,0,-0.5237,-0.5255,-0.5279,-0.5292,-0.5304,-0.5326,-0.534,-0.5351,-0.5366,-0.5391,-0.5406,-0.5431,-0.5452,-0.5493,-0.5509,-0.5534,-0.5536,-0.5553,-0.554,-0.5537,-0.5538,-0.5537,-0.5539,-0.5555,-0.5556,-0.5556,-0.5556,0,-0.5272,-0.5277,-0.5297,-0.532,-0.5337,-0.5356,-0.5374,-0.5386,-0.5399,-0.5417,-0.5442,-0.5459,-0.5491,-0.5517,-0.5543,-0.5556,-0.5559,-0.556,-0.5566,-0.5564,-0.556,-0.5564,-0.5513,-0.5559,-0.5559,-0.5559,-0.5558,-0.5558,-0.5296,-0.5313,-0.5332,-0.5355,-0.537,-0.5387,-0.5405,-0.5417,-0.5439,-0.5466,-0.5471,-0.5499,-0.552,-0.5555,-0.5569,-0.5591,-0.5588,-0.5596,-0.5598,-0.56,-0.5602,-0.5555,-0.5596,-0.5596,-0.5596,-0.5596,-0.5596,0,-0.5332,-0.5345,-0.5366,-0.5391,-0.541,-0.541,-0.543,-0.5446,-0.547,-0.5489,-0.551,-0.554,-0.5565,-0.5583,-0.5609,-0.5624,-0.5626,-0.5631,-0.563,-0.5634,-0.5602,-0.5595,-0.5629,-0.5629,-0.5629,-0.5629,-0.5629,-0.5629,-0.5353,-0.5382,-0.5389,-0.5425,-0.5438,-0.5465,-0.5477,-0.5493,-0.5508,-0.5542,-0.5562,-0.5574,-0.5593,-0.562,-0.5644,-0.5649,-0.5659,-0.5663,-0.5668,-0.5639,-0.5636,-0.5632,-0.5626,-0.5665,-0.5665,-0.5698,-0.5698,-0.5698]},{"header":{"parameterUnit":"m.s-1","parameterCategory":1,"la1":30.2991,"la2":30.254,"lo1":-89.0895,"lo2":-89.0444,"dy":0.0017,"dx":0.0017,"nx":28,"ny":28,"refTime":"2024-07-20T03:00:00:Z","depth":0,"parameterNumber":3,"parameterNumberName":"V-component_of_WINDS"},"data":[0,0,0,0,0,0,0,0,0,0,0,0,0,0,0,0,0,0,0,0,0,0,0,0,0,0,0,0,0,0,0,0,0,0,0,0,0,0,0,0,0,0,0,0,0,0,0,0,0,0,0,0,0,0,0,0,0,0,3.9371,3.9371,0,3.9433,3.9434,3.9435,3.9415,3.9413,3.9412,3.9411,3.947,3.9472,3.9475,0,0,0,0,0,0,0,0,0,0,0,0,0,3.9228,3.9231,3.9371,3.9371,3.9372,3.9433,3.9434,3.9435,3.9415,3.9413,3.9412,3.941,3.9469,3.9472,3.9475,0,0,0,0,0,0,0,0,0,0,0,0,0,3.929,3.9232,3.9371,3.937,3.937,3.9433,3.9434,3.9435,3.9415,3.9413,3.9411,3.9409,3.9468,3.9472,3.9476,3.9541,0,0,3.9489,3.9491,0,0,0,0,0,0,0,0,3.9287,3.9295,3.9369,3.937,3.9371,3.9414,3.9405,3.947,3.9416,3.9398,3.9411,3.9408,3.9453,3.9458,3.9474,3.9544,3.9547,3.9489,3.9492,3.9493,3.9495,0,0,0,0,0,0,0,3.9282,3.9292,3.9395,3.937,3.9371,3.9364,3.9371,3.9417,3.9435,3.9399,3.9398,3.9406,3.9453,3.947,3.9475,3.9548,3.9489,3.9493,3.9495,3.9497,3.9672,3.9674,0,0,0,0,0,0,3.9278,3.9289,3.9393,3.9397,3.9323,3.9368,3.9376,3.9402,3.9435,3.9438,3.9408,3.9405,3.9464,3.947,3.9477,3.9554,3.9493,3.9497,3.95,3.967,3.9672,3.9675,0,0,0,0,0,0,3.9275,3.9288,3.9391,3.9343,3.9355,3.9373,3.9403,3.9404,3.9422,3.9441,3.9444,3.9422,3.9462,3.9471,3.9525,3.9556,3.9499,3.9503,3.9667,3.9671,3.9674,3.9709,0,0,0,0,0,0,3.9271,3.9287,3.9313,3.9344,3.9358,3.944,3.9405,3.9407,3.943,3.9426,3.9456,3.9459,3.9461,3.9519,3.9529,3.956,3.9506,3.9665,3.9669,3.9673,3.9705,3.9713,3.972,0,0,0,0,0,3.9266,3.932,3.9315,3.9328,3.9392,3.9442,3.945,3.9453,3.9432,3.9458,3.947,3.9458,3.9551,3.9525,3.9536,3.9569,3.9663,3.9668,3.9672,3.9702,3.9712,3.972,0,0,0,0,0,0,3.9292,3.9324,3.9319,3.9385,3.9411,3.9438,3.9471,3.9464,3.9495,3.9491,3.9492,3.9499,3.9554,3.9567,3.9537,3.9633,3.9603,3.9611,3.9622,3.9631,3.9639,3.9633,3.951,0,0,0,0,0,3.9306,3.9345,3.9371,3.9426,3.944,3.9453,3.9475,3.9476,3.9502,3.9512,3.9529,3.9553,3.9588,3.9611,3.9644,3.9708,3.9712,3.9736,3.9743,3.9749,3.9754,3.9787,3.9797,3.969,3.969,3.969,0,0,3.9333,3.9356,3.9381,3.9432,3.9452,3.9491,3.9463,3.9505,3.9533,3.9518,3.957,3.9583,3.9611,3.9669,3.9696,3.9682,3.9785,3.9755,3.9759,3.9762,3.9793,3.9803,3.9811,3.9694,3.9693,3.9693,0,0,3.9404,3.9426,3.9474,3.9495,3.9526,3.9535,3.9546,3.9575,3.9583,3.9636,3.9625,3.9657,3.9718,3.9737,3.9755,3.9831,3.982,3.9842,3.9879,3.9911,3.9919,3.9926,3.9951,3.9961,3.9848,3.9848,3.9848,0,3.9434,3.9494,3.9499,3.9542,3.9564,3.9554,3.96,3.962,3.966,3.9674,3.9658,3.9733,3.9751,3.9812,3.9831,3.9847,3.9858,3.9838,3.9918,3.9925,3.9932,3.9956,3.9966,3.985,3.985,3.985,3.985,0,3.9528,3.957,3.9604,3.9644,3.967,3.9715,3.9724,3.9749,3.9747,3.9757,3.9809,3.983,3.9866,3.9881,3.988,3.9943,3.9932,3.9917,3.9888,3.9944,3.9967,3.9976,3.9854,3.9853,3.9852,3.9851,0,0,3.9616,3.9658,3.967,3.9687,3.9721,3.9752,3.9795,3.9832,3.9852,3.988,3.9915,3.9966,3.9952,3.9972,3.9972,4.0,4.0056,3.9981,3.9981,3.9992,4.0124,4.0134,4.0144,4.005,4.0051,4.0053,4.0121,0,3.9687,3.9765,3.977,3.984,3.9877,3.9867,3.9904,3.9928,3.9937,3.9968,3.9978,4.0014,3.9994,4.0005,4.0033,4.0043,4.0082,4.0039,4.0079,4.0081,4.0071,4.0156,4.0167,4.023,4.013,4.0131,4.0132,0,3.9781,3.9813,3.9886,3.9913,3.9928,3.9962,3.9995,4.0026,4.0051,4.0056,4.0078,4.0074,4.0116,4.0087,4.0143,4.0113,4.013,4.0138,4.014,4.0143,4.0109,4.0159,4.0251,4.026,4.0147,4.0145,4.0144,0,3.9835,3.9896,3.9947,3.9962,3.9996,4.0019,4.0033,4.0057,4.0078,4.0107,4.012,4.0153,4.017,4.0194,4.0198,4.0177,4.0254,4.0225,4.0257,4.0257,4.0272,4.0271,4.0366,4.0287,4.0287,4.0286,4.0286,0,3.9913,3.9958,3.9972,4.0003,4.0052,4.0056,4.0104,4.0117,4.0138,4.017,4.0163,4.0193,4.0197,4.0228,4.0231,4.0276,4.0284,4.0287,4.0287,4.0287,4.0286,4.0297,4.0292,4.0289,4.0288,4.0288,4.0287,0,3.9981,3.9993,4.0047,4.0074,4.0082,4.0117,4.0138,4.0167,4.0176,4.0217,4.0226,4.024,4.0275,4.0282,4.0323,4.0325,4.0378,4.0374,4.0369,4.0368,4.0399,4.0395,4.0503,4.0516,4.043,4.0431,4.0431,0,4.0029,4.0064,4.0094,4.0116,4.0132,4.0167,4.0188,4.0194,4.0216,4.0247,4.0271,4.0306,4.0334,4.039,4.0402,4.0433,4.0429,4.0464,4.0433,4.0431,4.0427,4.0424,4.0426,4.047,4.0471,4.0471,4.0472,0,4.0113,4.0117,4.0149,4.0183,4.021,4.0236,4.0262,4.0279,4.0287,4.0312,4.0349,4.0371,4.0413,4.0446,4.0477,4.049,4.0481,4.0482,4.0491,4.049,4.0485,4.0486,4.0383,4.0479,4.0478,4.0478,4.0477,4.0477,4.0171,4.02,4.0226,4.0262,4.0282,4.0305,4.0333,4.0346,4.0377,4.0412,4.0413,4.0452,4.0474,4.0515,4.053,4.0559,4.0547,4.0561,4.0564,4.0566,4.0568,4.0482,4.0565,4.0565,4.0564,4.0564,4.0564,0,4.0253,4.0269,4.0302,4.0338,4.0365,4.0357,4.0384,4.0407,4.0442,4.0464,4.0492,4.0532,4.0565,4.0579,4.0611,4.0631,4.0628,4.0639,4.0636,4.0639,4.0578,4.0566,4.0641,4.0641,4.0641,4.0641,4.0641,4.0641,4.0298,4.0347,4.0353,4.041,4.0425,4.0465,4.048,4.0501,4.0519,4.0565,4.0592,4.0602,4.0621,4.0653,4.0682,4.0685,4.0696,4.0708,4.0709,4.0651,4.0644,4.0636,4.0625,4.0711,4.0711,4.0768,4.0768,4.0769]}]]